User: anonymous   Login
Location: Warszawa
(52.2500°N, 21.0000°E)
Time: 15:02:20
(UTC+01:00)
Language:

Courier 1B - Orbit

View from above orbital plane
View from above orbital plane
View from above satellite
View from above satellite

Ground track
Ground track

The orbit data is extracted from the following two-line orbital elements,

1    58U 60013A   23027.13402887  .00000130  00000-0  72425-4 0  9998
2    58  28.3276 296.3142 0164852  44.9838 316.3934 13.46343554 67765
Epoch (UTC): 27 January 2023 03:13:00
Eccentricity: 0.0164852
inclination: 28.3276°
perigee height: 963 km
apogee height: 1209 km
right ascension of ascending node: 296.3142°
argument of perigee: 44.9838°
revolutions per day: 13.46343554
mean anomaly at epoch: 316.3934°
orbit number at epoch: 6776

The dashed part of the orbit path shows where the satellite is in the earth's shadow,  

DLR